Location: Litvinovka
(48.6667°N, 34.3500°E)
Time: 01:32:21
(UTC+00:00)

Resurs 1-4 Rocket - Pass Details

Date: 18 September 2020
Orbit: 800 x 813 km, 98.6° (Epoch: 23 October)

Event Time Altitude Azimuth Distance (km) Brightness Sun altitude
Rises 22:48:40 0° 20° (NNE) 3,325 6.3 -37.5°
Reaches altitude 10° 22:51:09 10° 27° (NNE) 2,391 5.3 -37.4°
Enters shadow 22:53:49 27° 46° (NE) 1,505 3.9 -37.2°
